Date,TemperatureHighF,TemperatureAvgF,TemperatureLowF,DewpointHighF,DewpointAvgF,DewpointLowF,HumidityHigh,HumidityAvg,HumidityLow,PressureMaxIn,PressureMinIn,WindSpeedMaxMPH,WindSpeedAvgMPH,GustSpeedMaxMPH,PrecipitationSumIn
2013-3-1,36.8,33.9,29.1,26.6,23.3,19.5,74,65,56,29.95,29.79,14,3,14,0.00
2013-3-2,32.8,29.8,27.7,21.2,18.0,13.6,74,61,50,29.95,29.88,14,4,16,0.00
2013-3-3,32.4,29.0,26.2,18.1,15.3,12.2,65,56,46,30.02,29.90,18,5,18,0.00
2013-3-4,40.6,30.3,22.8,17.6,13.1,8.8,72,50,31,30.12,30.02,21,4,21,0.00
2013-3-5,52.9,37.1,25.1,31.8,20.8,11.5,96,57,24,30.10,29.71,11,1,12,0.06
2013-3-6,37.5,33.2,30.3,35.2,31.0,25.2,98,92,62,30.10,29.70,14,2,14,0.66
2013-3-7,40.3,37.0,35.0,28.2,26.6,24.0,75,66,55,30.24,30.09,18,4,18,0.17
2013-3-8,40.3,34.1,26.2,27.9,23.9,21.5,85,66,55,30.41,30.24,19,4,20,0.00
2013-3-9,58.3,36.1,21.1,28.9,23.7,19.1,94,67,23,30.44,30.25,6,0,6,0.00
2013-3-10,65.6,45.5,25.9,32.2,26.9,23.7,93,56,24,30.30,30.11,20,2,20,0.00
2013-3-11,60.3,53.9,46.4,47.3,33.7,22.6,71,48,25,30.11,29.78,18,4,25,0.00
2013-3-12,57.6,47.4,39.2,49.2,37.7,24.7,96,70,51,30.02,29.71,22,4,22,0.19
2013-3-13,42.9,34.8,28.5,29.1,22.3,14.6,86,61,34,30.14,29.95,30,5,30,0.00
2013-3-14,42.3,33.5,27.4,19.3,14.7,11.8,65,46,33,30.24,30.13,26,5,30,0.00
2013-3-15,56.2,41.3,24.8,32.8,24.2,14.7,74,52,34,30.15,29.81,19,3,20,0.00
2013-3-16,54.6,46.1,39.8,43.9,38.4,32.0,90,75,54,29.88,29.60,14,2,14,0.01
2013-3-17,43.1,36.7,32.4,38.9,30.4,25.6,93,78,65,30.24,29.88,14,1,14,0.00
2013-3-18,34.0,32.0,30.0,33.0,30.5,28.8,98,94,84,30.26,29.86,9,0,10,0.34
2013-3-19,53.2,40.7,31.5,37.8,22.3,4.3,99,58,16,29.98,29.76,40,7,40,0.10
2013-3-20,48.2,38.7,30.6,29.3,13.8,6.4,90,39,21,30.01,29.78,31,6,31,0.00
2013-3-21,31.7,27.1,23.7,23.5,12.6,5.1,78,55,34,29.96,29.83,21,4,25,0.00
2013-3-22,44.7,33.3,25.6,17.3,13.6,9.6,61,45,28,30.04,29.92,21,4,22,0.00
2013-3-23,52.5,35.6,20.4,23.2,17.6,13.2,86,53,23,30.07,29.94,14,2,17,0.00
2013-3-24,39.6,31.1,25.9,30.3,24.4,19.0,97,77,44,30.00,29.61,7,0,8,0.00
2013-3-25,37.6,32.5,29.6,34.7,30.8,25.8,98,93,70,29.74,29.53,11,0,11,0.55
2013-3-26,43.3,37.3,32.8,29.4,26.9,23.5,82,66,49,30.08,29.74,16,3,18,0.04
2013-3-27,44.2,37.4,30.8,28.5,25.5,21.5,82,62,46,30.17,30.08,21,5,21,0.01
2013-3-28,45.7,39.3,35.6,29.2,25.3,23.2,65,57,47,30.27,30.14,20,4,21,0.00
2013-3-29,53.8,43.2,34.8,30.7,26.1,18.1,76,53,27,30.28,30.16,14,2,16,0.00
2013-3-30,59.4,42.2,27.5,30.6,24.9,18.9,90,57,22,30.28,30.07,12,1,12,0.00
2013-3-31,44.2,38.7,33.9,42.3,35.6,27.1,98,89,66,30.08,29.77,8,0,8,0.17